Tracking 17886 objects as of 8-December-2016
HD Live streaming from Space Station
objects crossing your sky now

COSMOS 252 DEB

Track COSMOS 252 DEB now!
10-day predictions


NORAD ID: 3559
Int'l Code: 1968-097M
Perigee: 506.2 km
Apogee: 1,358.4 km
Inclination: 62.3 °
Period: 103.5 minutes
Semi major axis: 7303 km
RCS: 0.1149 m2 (medium)
Launch date: November 1, 1968
Source: Commonwealth of Independent States (former USSR) (CIS)
Launch site: TYURATAM MISSILE AND SPACE COMPLEX (TTMTR)

Note: This is SATELLITE DEBRIS
Your satellite tracking list
Your tracking list is empty





NASA's NSSDC Master Catalog

Two Line Element Set (TLE):
1  3559U 68097M   16341.93107613 +.00000583 +00000-0 +14349-3 0  9997
2  3559 062.2913 103.0667 0583408 103.1108 263.5683 13.90989800357894
Source of the keplerian elements: AFSPC